Weather Service Report


427 
ASUS43 KLMK 290110
RWRKY 
KENTUCKY REGIONAL WEATHER ROUNDUP
NATIONAL WEATHER SERVICE LOUISVILLE KY
900 PM EDT SUN AUG 28 2016

NOTE "FAIR" INDICATES FEW OR NO CLOUDS BELOW 12,000 FEET
WITH NO SIGNIFICANT WEATHER AND/OR OBSTRUCTIONS TO VISIBILITY.

KYZ001>023-026-027-061>063-070>075-290200-
WESTERN AND SOUTH CENTRAL KENTUCKY
  
CITY           SKY/WX    TMP DP  RH WIND       PRES   REMARKS
PADUCAH        CLEAR     80  73  79 E5        30.07S                  
HENDERSON      CLEAR     81  75  83 CALM      30.08R                  
OWENSBORO      CLEAR     88  74  63 CALM      30.11R HX  96           
HOPKINSVILLE   CLEAR     82  75  80 NE6       30.09R                  
BOWLING GREEN  PTCLDY    80  71  74 E15       30.14R                  
GLASGOW        PTCLDY    75  67  75 E9        30.16F                  
$$

KYZ024-025-028>034-038-045-046-053-290200-
NORTH CENTRAL KENTUCKY
  
CITY           SKY/WX    TMP DP  RH WIND       PRES   REMARKS
LOUISVILLE/SDF MOCLDY    79  69  71 NE3       30.14S                  
LOUISVILLE/LOU CLOUDY    78  69  73 NE3       30.15S                  
FORT KNOX      MOCLDY    77  69  77 E7        30.14R                  
$$

KYZ035>037-039>044-047>052-055>060-089>105-290200-
NORTHEAST KENTUCKY
  
CITY           SKY/WX    TMP DP  RH WIND       PRES   REMARKS
LEXINGTON      MOCLDY    75  65  70 NE5       30.17R                  
COVINGTON      TSTM      72  71  97 SE9       30.20R                  
FRANKFORT      MOCLDY    74  69  85 CALM      30.16R                  
$$

KYZ054-064>069-076>088-106>120-290200-
SOUTHEAST KENTUCKY
  
CITY           SKY/WX    TMP DP  RH WIND       PRES   REMARKS
JACKSON        CLOUDY    73  68  84 CALM      30.16F                  
LONDON         CLOUDY    72  66  81 E3        30.17F                  
SOMERSET       MOCLDY    70  70 100 CALM      30.17F                  
MIDDLESBORO    MOCLDY    73  71  94 CALM      30.17S                  
MONTICELLO     RAIN     N/A N/A N/A N10       30.19R                  
$$

  

Return to Home page


Western Regional Climate Center, wrcc@dri.edu